Lid_Strength_Index
11 14 19 15 14 13 14 15 16 14 11 12 13 13 11 9 9 9 8 7 7 6 6 8 9 9 9 9 8 6 5 3 1 1 2 2 2 1 1 0 -0 0 0 1
16 17 13 12 12 12 13 15 15 14 12 12 13 14 11 10 9 8 8 8 7 6 7 7 8 10 9 9 9 8 7 5 1 2 2 2 1 1 1 0 0 0 0 1
14 14 11 12 13 15 16 16 16 16 13 12 13 14 12 10 10 9 8 9 8 7 7 7 7 8 9 9 8 9 7 2 2 2 2 2 2 1 1 1 1 0 1 1
14 12 12 14 15 15 18 13 13 14 16 19 13 20 15 12 13 12 11 12 11 10 8 7 7 7 8 8 8 7 2 2 1 2 2 2 3 3 2 1 1 1 0 1
16 14 14 16 14 13 15 12 14 14 16 16 15 17 18 14 15 14 13 11 10 10 9 8 8 7 7 7 6 4 4 3 3 2 2 2 2 2 1 1 1 1 1 1
15 11 12 13 11 11 12 16 16 17 16 22 21 19 19 17 16 14 13 12 11 10 9 8 7 7 6 5 5 5 5 5 4 3 2 2 2 2 2 2 2 2 1 1
18 17 13 10 14 13 15 19 27 27 27 25 20 17 19 16 14 14 14 12 10 9 9 9 8 7 4 5 6 5 5 4 3 3 2 2 3 2 2 2 2 2 2 1
25 22 19 12 13 15 18 18 20 26 26 22 19 21 17 14 13 13 13 12 10 8 8 9 8 5 5 5 6 5 5 5 5 5 5 5 5 5 3 2 2 2 2 2
21 22 14 13 11 14 18 20 15 19 23 23 23 19 14 14 14 13 13 13 12 9 8 8 7 7 6 6 6 7 6 6 7 6 7 8 9 7 8 9 8 9 9 7
18 21 18 16 11 13 18 16 22 21 23 28 23 22 22 19 17 14 14 14 12 10 8 8 8 8 7 6 6 7 7 8 8 8 9 9 10 10 10 10 11 11 9 10
17 18 18 15 16 18 16 19 19 17 19 23 24 23 17 18 16 15 14 13 12 11 10 9 9 9 8 7 7 8 9 9 9 10 10 11 11 11 11 12 12 12 11 11
14 15 19 20 13 12 16 17 17 20 21 19 20 21 15 16 15 14 14 12 12 12 11 11 10 10 9 9 9 10 10 10 10 11 11 12 11 12 13 13 13 12 12 12
14 21 23 19 16 14 16 15 15 16 16 20 22 21 15 16 16 15 14 13 13 12 12 11 11 10 10 10 10 11 11 11 12 12 13 13 14 13 14 14 13 13 13 13
12 15 16 21 18 16 18 16 16 17 22 20 20 20 18 18 17 16 15 13 13 13 13 12 11 11 11 11 11 12 13 13 13 14 14 14 15 15 15 14 14 14 14 14
17 25 18 18 17 16 15 17 17 18 17 20 19 19 18 17 17 16 15 14 14 14 13 13 13 13 13 14 14 13 14 14 14 14 15 15 15 15 15 15 15 15 15 15
15 25 21 23 15 15 16 15 17 18 17 17 17 19 15 15 15 17 17 16 16 16 15 15 15 15 15 15 15 15 15 15 15 15 15 15 16 16 16 16 15 15 15 15
18 24 27 25 19 20 22 18 18 18 17 17 19 16 14 16 16 17 17 16 17 16 16 16 16 16 16 16 16 16 15 15 16 16 16 15 16 16 16 16 16 16 16 16
22 25 25 25 24 27 18 15 17 19 17 16 16 15 14 15 15 15 15 16 16 16 16 16 16 16 16 16 16 16 16 16 16 16 16 16 15 16 16 17 17 17 17 17
14 23 26 21 25 21 17 17 18 18 18 16 16 16 15 14 13 15 15 15 16 16 16 16 16 16 16 16 15 16 16 17 17 17 17 17 17 17 17 18 18 17 18 18
15 17 22 29 28 27 18 17 15 16 21 15 16 16 17 15 19 18 16 16 16 16 16 17 17 17 17 17 16 16 17 17 18 17 17 17 17 18 18 18 18 18 17 17
30 31 26 31 29 23 17 16 15 23 19 15 15 15 15 17 17 17 17 17 17 17 17 17 18 19 19 18 17 18 18 19 18 18 17 18 17 18 17 18 18 18 18 18
23 26 28 31 29 24 16 15 17 15 14 14 15 15 16 16 15 16 16 17 18 19 19 19 20 21 21 21 19 20 21 20 19 19 18 19 18 17 17 18 18 18 18 19
23 19 22 19 19 15 15 15 14 14 14 14 15 15 15 16 18 18 18 18 19 19 19 19 20 21 22 22 22 22 23 21 20 20 20 19 19 18 18 19 18 18 18 19
20 19 20 20 19 17 15 14 14 13 14 14 14 15 15 17 19 19 20 21 21 22 24 24 24 23 24 24 24 25 24 23 23 22 22 20 21 20 20 18 18 18 18 18
19 19 20 20 19 19 17 16 14 14 16 17 19 18 17 16 18 18 20 21 23 24 26 27 26 26 27 27 27 27 25 24 22 22 22 21 20 21 20 19 19 18 18 17
19 18 18 18 15 14 15 15 16 17 18 19 17 19 20 18 17 19 20 22 23 24 24 24 24 24 25 25 26 26 26 24 23 21 21 21 21 21 20 20 18 11 11 11